TimeCST,TemperatureF,Dew PointF,Humidity,Sea Level PressureIn,VisibilityMPH,Wind Direction,Wind SpeedMPH,Gust SpeedMPH,PrecipitationIn,Events,Conditions,WindDirDegrees,DateUTC
12:55 AM,9.0,-0.0,67,30.24,10.0,NNW,16.1,-,N/A,,Clear,330,2014-01-17 06:55:00
1:55 AM,8.1,-0.0,70,30.24,10.0,NNW,15.0,-,N/A,,Clear,330,2014-01-17 07:55:00
2:55 AM,7.0,-0.0,73,30.24,10.0,NNW,11.5,-,N/A,,Clear,330,2014-01-17 08:55:00
3:55 AM,3.9,-0.9,80,30.24,10.0,NNW,8.1,-,N/A,,Clear,330,2014-01-17 09:55:00
4:55 AM,3.0,-2.0,80,30.24,10.0,NW,3.5,-,N/A,,Clear,310,2014-01-17 10:55:00
5:55 AM,1.0,-2.0,87,30.24,10.0,Calm,Calm,-,N/A,,Clear,0,2014-01-17 11:55:00
6:55 AM,3.0,-0.9,84,30.22,10.0,Calm,Calm,-,N/A,,Clear,0,2014-01-17 12:55:00
7:55 AM,3.0,-0.9,84,30.21,10.0,SSW,3.5,-,N/A,,Clear,210,2014-01-17 13:55:00
8:55 AM,6.1,1.0,80,30.20,10.0,Calm,Calm,-,N/A,,Clear,0,2014-01-17 14:55:00
9:55 AM,12.9,7.0,77,30.19,10.0,Calm,Calm,-,N/A,,Clear,0,2014-01-17 15:55:00
10:55 AM,17.1,6.1,62,30.17,10.0,Calm,Calm,-,N/A,,Clear,0,2014-01-17 16:55:00
11:55 AM,18.0,7.0,62,30.14,10.0,SE,3.5,-,N/A,,Clear,130,2014-01-17 17:55:00
12:55 PM,19.0,9.0,65,30.10,10.0,South,5.8,-,N/A,,Clear,170,2014-01-17 18:55:00
1:55 PM,21.9,12.0,66,30.07,10.0,SSE,10.4,-,N/A,,Clear,160,2014-01-17 19:55:00
2:55 PM,24.1,14.0,65,30.02,10.0,SSE,11.5,-,N/A,,Clear,160,2014-01-17 20:55:00
3:55 PM,26.1,17.1,69,29.98,10.0,SSE,10.4,-,N/A,,Overcast,160,2014-01-17 21:55:00
4:55 PM,27.0,19.0,72,29.99,10.0,SE,8.1,-,N/A,,Overcast,140,2014-01-17 22:55:00
5:55 PM,27.0,19.0,72,29.96,10.0,SSE,10.4,-,N/A,,Overcast,150,2014-01-17 23:55:00
6:55 PM,27.0,19.9,75,29.90,10.0,SSE,11.5,-,N/A,,Mostly Cloudy,160,2014-01-18 00:55:00
7:55 PM,28.0,19.9,72,29.85,10.0,SSE,10.4,-,N/A,,Overcast,160,2014-01-18 01:55:00
8:55 PM,28.9,19.9,69,29.78,10.0,South,12.7,-,N/A,,Partly Cloudy,170,2014-01-18 02:55:00
9:55 PM,28.9,19.9,69,29.73,10.0,South,11.5,-,N/A,,Overcast,170,2014-01-18 03:55:00
10:55 PM,28.9,19.9,69,29.69,10.0,SSW,9.2,-,N/A,,Clear,200,2014-01-18 04:55:00
11:55 PM,30.9,24.1,76,29.65,10.0,West,10.4,-,N/A,,Clear,280,2014-01-18 05:55:00